Moose, Wyoming, United States (83012)
Lat: 43.66N, Lon: 110.72W
Wx Zone: WYZ013
Local Info
Past Weather Observations for Monday, November 24, 2014

NOTE: This archive is for the closest National Weather Service station to Moose. Information may differ from the station used for current weather conditions.

Click here for Long-term Archive

Time Weather Temperature Dewpoint Humidity Pressure Winds Precip Visibility
23:55
Overcast
25°F / -4°C 19°F / -7°C 80% 30.24 in
(1024 mb)
S 16.1 mph
(S 26 kph)
- 10SM
23:35
Overcast
27°F / -3°C 19°F / -7°C 74% 30.24 in
(1024 mb)
S 18.4 mph
(S 30 kph)
- 10SM
23:15
Overcast
25°F / -4°C 19°F / -7°C 80% 30.24 in
(1024 mb)
S 15 mph
(S 24 kph)
- 10SM
22:55
Overcast
25°F / -4°C 19°F / -7°C 80% 30.24 in
(1024 mb)
SSE 9.2 mph
(SSE 15 kph)
- 10SM
22:35
Overcast
25°F / -4°C 19°F / -7°C 80% 30.24 in
(1024 mb)
SSE 9.2 mph
(SSE 15 kph)
- 10SM
22:15
Overcast
25°F / -4°C 19°F / -7°C 80% 30.27 in
(1025 mb)
S 11.5 mph
(S 19 kph)
- 10SM
21:55
Overcast
27°F / -3°C 19°F / -7°C 74% 30.27 in
(1025 mb)
S 11.5 mph
(S 19 kph)
- 10SM
21:35
Overcast
25°F / -4°C 19°F / -7°C 80% 30.27 in
(1025 mb)
SSE 5.8 mph
(SSE 9 kph)
- 10SM
21:15
Overcast
27°F / -3°C 19°F / -7°C 74% 30.27 in
(1025 mb)
SSW 4.6 mph
(SSW 7 kph)
- 10SM
20:55
Overcast
27°F / -3°C 19°F / -7°C 74% 30.27 in
(1025 mb)
SSE 5.8 mph
(SSE 9 kph)
- 10SM
19:56
Mostly Cloudy
Showers In Vicinity
27°F / -3°C 19°F / -7°C 74% 30.27 in
(1025 mb)
S 9.2 mph
(S 15 kph)
- 1OSM
18:51
Partly Cloudy
27°F / -3°C 18°F / -8°C 69% 30.27 in
(1025 mb)
SSE 8.1 mph
(SSE 13 kph)
- 10SM
17:53
Partly Cloudy
27°F / -3°C 16°F / -9°C 64% 30.27 in
(1025 mb)
S 5.8 mph
(S 9 kph)
- 10SM
16:51
Partly Cloudy
27°F / -3°C 12°F / -11°C 54% 30.27 in
(1025 mb)
SSW 10.4 mph
(SSW 17 kph)
- 10SM
15:51
Partly Cloudy
28°F / -2°C 14°F / -10°C 55% 30.24 in
(1024 mb)
SW 11.5 mph
(SW 19 kph)
- 10SM
14:55
Overcast
Showers In Vicinity
27°F / -3°C 14°F / -10°C 59% 30.24 in
(1024 mb)
SW 9.2 mph
(SW 15 kph)
- 10SM
13:53
Overcast
28°F / -2°C 12°F / -11°C 51% 30.24 in
(1024 mb)
SSW 10.4 mph
(SSW 17 kph)
- 10SM
11:51
Mostly Cloudy
28°F / -2°C 14°F / -10°C 55% 30.21 in
(1023 mb)
W 18.4 mph
(W 30 kph)
- 10SM
10:52
Overcast
Showers In Vicinity
28°F / -2°C 12°F / -11°C 51% 30.12 in
(1020 mb)
W 15 mph
(W 24 kph)
- 10SM
09:51
Partly Cloudy
27°F / -3°C 14°F / -10°C 59% 30.15 in
(1021 mb)
W 15 mph
(W 24 kph)
- 10SM
08:52
Mostly Cloudy
27°F / -3°C 12°F / -11°C 54% 30.12 in
(1020 mb)
W 9.2 mph
(W 15 kph)
- 10SM
07:53
Overcast
27°F / -3°C 14°F / -10°C 59% 30.09 in
(1019 mb)
W 9.2 mph
(W 15 kph)
- 10SM
06:52
Overcast
25°F / -4°C 18°F / -8°C 74% 30.06 in
(1018 mb)
W 6.9 mph
(W 11 kph)
- 10SM
06:35
Overcast
25°F / -4°C 19°F / -7°C 80% 30.06 in
(1018 mb)
SW 8.1 mph
(SW 13 kph)
- 10SM
06:15
Overcast
23°F / -5°C 21°F / -6°C 93% 30.04 in
(1017 mb)
E 10.4 mph
(E 17 kph)
- 5SM
05:55
Overcast
25°F / -4°C 21°F / -6°C 86% 30.04 in
(1017 mb)
SSW 15 mph
(SSW 24 kph)
0.01 in
(0.25 mm)
3SM
05:35
Overcast
25°F / -4°C 21°F / -6°C 86% 30.04 in
(1017 mb)
SSW 13.8 mph
(SSW 22 kph)
0.01 in
(0.25 mm)
5SM
05:15
Overcast
25°F / -4°C 23°F / -5°C 93% 30.04 in
(1017 mb)
SE 4.6 mph
(SE 7 kph)
0.01 in
(0.25 mm)
2SM
04:55
Overcast
25°F / -4°C 23°F / -5°C 93% 30.04 in
(1017 mb)
Calm - 1 1/2SM
04:35
Overcast
27°F / -3°C 19°F / -7°C 74% 30.01 in
(1016 mb)
SW 10.4 mph
(SW 17 kph)
- 3SM
04:15
Overcast
27°F / -3°C 18°F / -8°C 69% 29.98 in
(1015 mb)
NW 11.5 mph
(NW 19 kph)
- 5SM
03:55
Overcast
27°F / -3°C 18°F / -8°C 69% 30.01 in
(1016 mb)
N 4.6 mph
(N 7 kph)
- 9SM
03:35
Overcast
27°F / -3°C 18°F / -8°C 69% 29.98 in
(1015 mb)
W 8.1 mph
(W 13 kph)
- 10SM
03:15
Overcast
27°F / -3°C 19°F / -7°C 74% 29.98 in
(1015 mb)
W 3.5 mph
(W 6 kph)
- 10SM
02:55
Overcast
27°F / -3°C 19°F / -7°C 74% 29.98 in
(1015 mb)
W 4.6 mph
(W 7 kph)
- 9SM
02:35
Mostly Cloudy
27°F / -3°C 19°F / -7°C 74% 29.98 in
(1015 mb)
SSW 9.2 mph
(SSW 15 kph)
- 9SM
02:15
Overcast
27°F / -3°C 19°F / -7°C 74% 29.98 in
(1015 mb)
SSW 13.8 mph
(SSW 22 kph)
- 10SM
01:55
Overcast
25°F / -4°C 23°F / -5°C 93% 29.98 in
(1015 mb)
SSW 8.1 mph
(SSW 13 kph)
- 10SM
01:35
Overcast
25°F / -4°C 25°F / -4°C 100% 29.98 in
(1015 mb)
SSE 8.1 mph
(SSE 13 kph)
- 2SM
01:15
Overcast
25°F / -4°C 25°F / -4°C 100% 29.98 in
(1015 mb)
S 12.7 mph
(S 20 kph)
- 1/2SM
00:55
Overcast
25°F / -4°C 25°F / -4°C 100% 29.98 in
(1015 mb)
SE 4.6 mph
(SE 7 kph)
0.02 in
(0.51 mm)
1/2SM
00:35
Overcast
25°F / -4°C 25°F / -4°C 100% 30.01 in
(1016 mb)
Calm 0.01 in
(0.25 mm)
3/4SM
00:15
Overcast
25°F / -4°C 25°F / -4°C 100% 29.98 in
(1015 mb)
S 10.4 mph
(S 17 kph)
- 1 3/4SM
Time Weather Temperature Dewpoint Humidity Pressure Winds Precip Visibility


Weather for websites

WeatherForYou.com, LLC is not responsible for any damages or problems caused by this service. Current weather conditions are obtained from the closest station including government and personal stations which may have varying degrees of accuracy. Weather forecasts are derived from the NOAA NDFD. Like all things, this site belongs to Jesus Christ... He just trusts me to maintain it. If you have any questions or comments email webmaster@weatherforyou.com

Copyright © 2014, WeatherForYou.com LLC. All rights reserved.